PRIVATE WETTERSTATION BILLIGHEIM-ALLFELD                       ZURCK
Wetterdaten: Dienstag, 29.04.2014
Datum Zeit Temp. A. Temp. A. min Temp. A. max Feuchte A. Luftdruck Regen Wind Richtung Richtung Sonnenschein ET Solar Taupunkt Windchill Windben Empfang
29.04.2014 00:00 11,2 C 11,2 C 11,2 C 87 % 1011,0 hPa 0,0 l/m 0,0 km/h (0 Bft) NW 315 0 min 0,000 mm 0 W/m 9,1 C 11,2 C 1,6 km/h (1 Bft) 100 %
29.04.2014 00:10 11,2 C 11,2 C 11,2 C 87 % 1011,0 hPa 0,0 l/m 0,0 km/h (0 Bft) N-NW 337 0 min 0,000 mm 0 W/m 9,1 C 11,2 C 4,8 km/h (1 Bft) 99 %
29.04.2014 00:20 11,2 C 11,2 C 11,2 C 87 % 1011,0 hPa 0,0 l/m 0,0 km/h (0 Bft) N-NW 337 0 min 0,000 mm 0 W/m 9,1 C 11,2 C 3,2 km/h (1 Bft) 100 %
29.04.2014 00:30 11,2 C 11,2 C 11,2 C 87 % 1011,0 hPa 0,0 l/m 0,0 km/h (0 Bft) N-NW 337 0 min 0,000 mm 0 W/m 9,1 C 11,2 C 3,2 km/h (1 Bft) 99 %
29.04.2014 00:40 11,2 C 11,2 C 11,2 C 87 % 1011,0 hPa 0,0 l/m 1,6 km/h (1 Bft) W-NW 292 0 min 0,000 mm 0 W/m 9,1 C 11,2 C 8,0 km/h (2 Bft) 100 %
29.04.2014 00:50 11,2 C 11,2 C 11,2 C 87 % 1011,1 hPa 0,0 l/m 1,6 km/h (1 Bft) W-NW 292 0 min 0,000 mm 0 W/m 9,1 C 11,2 C 6,4 km/h (2 Bft) 99 %
29.04.2014 01:00 11,1 C 11,1 C 11,2 C 87 % 1011,1 hPa 0,0 l/m 0,0 km/h (0 Bft) W-NW 292 0 min 0,000 mm 0 W/m 9,0 C 11,1 C 4,8 km/h (1 Bft) 100 %
29.04.2014 01:10 11,1 C 11,1 C 11,1 C 87 % 1011,1 hPa 0,0 l/m 0,0 km/h (0 Bft) W-NW 292 0 min 0,000 mm 0 W/m 9,0 C 11,1 C 1,6 km/h (1 Bft) 100 %
29.04.2014 01:20 11,1 C 11,1 C 11,1 C 87 % 1011,1 hPa 0,0 l/m 0,0 km/h (0 Bft) W-NW 292 0 min 0,000 mm 0 W/m 9,0 C 11,1 C 3,2 km/h (1 Bft) 99 %
29.04.2014 01:30 11,1 C 11,1 C 11,1 C 87 % 1010,9 hPa 0,0 l/m 0,0 km/h (0 Bft) W-NW 292 0 min 0,000 mm 0 W/m 9,0 C 11,1 C 4,8 km/h (1 Bft) 100 %
29.04.2014 01:40 11,1 C 11,1 C 11,1 C 87 % 1010,9 hPa 0,0 l/m 1,6 km/h (1 Bft) W-NW 292 0 min 0,000 mm 0 W/m 9,0 C 11,1 C 8,0 km/h (2 Bft) 100 %
29.04.2014 01:50 11,0 C 11,0 C 11,1 C 87 % 1010,9 hPa 0,0 l/m 0,0 km/h (0 Bft) W-NW 292 0 min 0,000 mm 0 W/m 8,9 C 11,0 C 6,4 km/h (2 Bft) 100 %
29.04.2014 02:00 11,0 C 11,0 C 11,0 C 87 % 1010,9 hPa 0,0 l/m 0,0 km/h (0 Bft) SW 225 0 min 0,000 mm 0 W/m 8,9 C 11,0 C 3,2 km/h (1 Bft) 100 %
29.04.2014 02:10 10,9 C 10,9 C 11,0 C 87 % 1010,9 hPa 0,0 l/m 0,0 km/h (0 Bft) W-SW 247 0 min 0,000 mm 0 W/m 8,8 C 10,9 C 4,8 km/h (1 Bft) 100 %
29.04.2014 02:20 10,9 C 10,9 C 10,9 C 87 % 1010,9 hPa 0,0 l/m 0,0 km/h (0 Bft) N 0 0 min 0,000 mm 0 W/m 8,8 C 10,9 C 0,0 km/h (0 Bft) 100 %
29.04.2014 02:30 10,9 C 10,9 C 10,9 C 87 % 1010,8 hPa 0,0 l/m 0,0 km/h (0 Bft) W-SW 247 0 min 0,000 mm 0 W/m 8,8 C 10,9 C 1,6 km/h (1 Bft) 100 %
29.04.2014 02:40 10,9 C 10,9 C 10,9 C 87 % 1010,8 hPa 0,0 l/m 0,0 km/h (0 Bft) W-SW 247 0 min 0,000 mm 0 W/m 8,8 C 10,9 C 3,2 km/h (1 Bft) 100 %
29.04.2014 02:50 10,8 C 10,8 C 10,9 C 87 % 1010,8 hPa 0,0 l/m 0,0 km/h (0 Bft) W 270 0 min 0,000 mm 0 W/m 8,7 C 10,8 C 1,6 km/h (1 Bft) 100 %
29.04.2014 03:00 10,8 C 10,8 C 10,9 C 87 % 1010,7 hPa 0,0 l/m 0,0 km/h (0 Bft) W 270 0 min 0,000 mm 0 W/m 8,7 C 10,8 C 1,6 km/h (1 Bft) 100 %
29.04.2014 03:10 10,8 C 10,8 C 10,8 C 87 % 1010,7 hPa 0,0 l/m 0,0 km/h (0 Bft) W 270 0 min 0,000 mm 0 W/m 8,7 C 10,8 C 1,6 km/h (1 Bft) 100 %
29.04.2014 03:20 10,7 C 10,7 C 10,8 C 87 % 1010,9 hPa 0,0 l/m 0,0 km/h (0 Bft) W 270 0 min 0,000 mm 0 W/m 8,6 C 10,7 C 3,2 km/h (1 Bft) 100 %
29.04.2014 03:30 10,7 C 10,7 C 10,7 C 87 % 1010,8 hPa 0,0 l/m 0,0 km/h (0 Bft) W 270 0 min 0,000 mm 0 W/m 8,6 C 10,7 C 1,6 km/h (1 Bft) 100 %
29.04.2014 03:40 10,7 C 10,7 C 10,7 C 87 % 1010,8 hPa 0,0 l/m 0,0 km/h (0 Bft) W 270 0 min 0,000 mm 0 W/m 8,6 C 10,7 C 1,6 km/h (1 Bft) 100 %
29.04.2014 03:50 10,7 C 10,7 C 10,7 C 87 % 1010,8 hPa 0,0 l/m 0,0 km/h (0 Bft) W 270 0 min 0,000 mm 0 W/m 8,6 C 10,7 C 3,2 km/h (1 Bft) 100 %
29.04.2014 04:00 10,6 C 10,6 C 10,7 C 87 % 1010,7 hPa 0,0 l/m 0,0 km/h (0 Bft) W 270 0 min 0,000 mm 0 W/m 8,5 C 10,6 C 1,6 km/h (1 Bft) 100 %
29.04.2014 04:10 10,6 C 10,6 C 10,6 C 87 % 1010,8 hPa 0,0 l/m 0,0 km/h (0 Bft) W 270 0 min 0,000 mm 0 W/m 8,5 C 10,6 C 1,6 km/h (1 Bft) 100 %
29.04.2014 04:20 10,6 C 10,6 C 10,6 C 87 % 1010,9 hPa 0,0 l/m 0,0 km/h (0 Bft) W 270 0 min 0,000 mm 0 W/m 8,5 C 10,6 C 3,2 km/h (1 Bft) 100 %
29.04.2014 04:30 10,6 C 10,6 C 10,6 C 87 % 1011,0 hPa 0,0 l/m 0,0 km/h (0 Bft) W 270 0 min 0,000 mm 0 W/m 8,5 C 10,6 C 1,6 km/h (1 Bft) 100 %
29.04.2014 04:40 10,5 C 10,5 C 10,6 C 87 % 1010,9 hPa 0,0 l/m 0,0 km/h (0 Bft) W 270 0 min 0,000 mm 0 W/m 8,4 C 10,5 C 1,6 km/h (1 Bft) 99 %
29.04.2014 04:50 10,5 C 10,5 C 10,5 C 87 % 1011,0 hPa 0,0 l/m 0,0 km/h (0 Bft) W 270 0 min 0,000 mm 0 W/m 8,4 C 10,5 C 1,6 km/h (1 Bft) 100 %
29.04.2014 05:00 10,5 C 10,5 C 10,5 C 87 % 1010,9 hPa 0,0 l/m 0,0 km/h (0 Bft) W 270 0 min 0,000 mm 0 W/m 8,4 C 10,5 C 1,6 km/h (1 Bft) 100 %
29.04.2014 05:10 10,5 C 10,4 C 10,5 C 87 % 1011,0 hPa 0,0 l/m 0,0 km/h (0 Bft) W 270 0 min 0,000 mm 0 W/m 8,4 C 10,5 C 3,2 km/h (1 Bft) 100 %
29.04.2014 05:20 10,5 C 10,5 C 10,5 C 87 % 1011,1 hPa 0,0 l/m 0,0 km/h (0 Bft) W 270 0 min 0,000 mm 0 W/m 8,4 C 10,5 C 1,6 km/h (1 Bft) 90 %
29.04.2014 05:30 10,5 C 10,5 C 10,5 C 87 % 1010,9 hPa 0,0 l/m 0,0 km/h (0 Bft) W 270 0 min 0,000 mm 0 W/m 8,4 C 10,5 C 3,2 km/h (1 Bft) 99 %
29.04.2014 05:40 10,5 C 10,4 C 10,5 C 87 % 1010,9 hPa 0,0 l/m 0,0 km/h (0 Bft) W 270 0 min 0,000 mm 0 W/m 8,4 C 10,5 C 4,8 km/h (1 Bft) 100 %
29.04.2014 05:50 10,4 C 10,4 C 10,5 C 87 % 1010,9 hPa 0,0 l/m 0,0 km/h (0 Bft) W 270 0 min 0,000 mm 0 W/m 8,3 C 10,4 C 3,2 km/h (1 Bft) 100 %
29.04.2014 06:00 10,4 C 10,4 C 10,4 C 87 % 1011,0 hPa 0,0 l/m 0,0 km/h (0 Bft) W 270 0 min 0,000 mm 0 W/m 8,3 C 10,4 C 4,8 km/h (1 Bft) 100 %
29.04.2014 06:10 10,4 C 10,4 C 10,4 C 87 % 1011,0 hPa 0,0 l/m 0,0 km/h (0 Bft) W 270 0 min 0,000 mm 0 W/m 8,3 C 10,4 C 4,8 km/h (1 Bft) 100 %
29.04.2014 06:20 10,4 C 10,4 C 10,4 C 87 % 1010,9 hPa 0,0 l/m 0,0 km/h (0 Bft) W 270 0 min 0,000 mm 0 W/m 8,3 C 10,4 C 1,6 km/h (1 Bft) 99 %
29.04.2014 06:30 10,4 C 10,4 C 10,4 C 87 % 1011,0 hPa 0,0 l/m 0,0 km/h (0 Bft) W 270 0 min 0,000 mm 0 W/m 8,3 C 10,4 C 4,8 km/h (1 Bft) 100 %
29.04.2014 06:40 10,4 C 10,4 C 10,4 C 87 % 1011,0 hPa 0,0 l/m 0,0 km/h (0 Bft) W-SW 247 0 min 0,000 mm 7 W/m 8,3 C 10,4 C 4,8 km/h (1 Bft) 100 %
29.04.2014 06:50 10,4 C 10,4 C 10,4 C 87 % 1011,0 hPa 0,0 l/m 0,0 km/h (0 Bft) W-SW 247 0 min 0,000 mm 11 W/m 8,3 C 10,4 C 1,6 km/h (1 Bft) 100 %
29.04.2014 07:00 10,4 C 10,4 C 10,4 C 87 % 1011,1 hPa 0,0 l/m 0,0 km/h (0 Bft) SW 225 0 min 0,000 mm 9 W/m 8,3 C 10,4 C 3,2 km/h (1 Bft) 100 %
29.04.2014 07:10 10,5 C 10,4 C 10,5 C 87 % 1011,1 hPa 0,0 l/m 1,6 km/h (1 Bft) SW 225 0 min 0,000 mm 14 W/m 8,4 C 10,5 C 6,4 km/h (2 Bft) 100 %
29.04.2014 07:20 10,5 C 10,4 C 10,5 C 87 % 1011,1 hPa 0,0 l/m 0,0 km/h (0 Bft) W-NW 292 0 min 0,000 mm 23 W/m 8,4 C 10,5 C 3,2 km/h (1 Bft) 100 %
29.04.2014 07:30 10,6 C 10,5 C 10,6 C 87 % 1011,1 hPa 0,0 l/m 0,0 km/h (0 Bft) NW 315 0 min 0,000 mm 39 W/m 8,5 C 10,6 C 3,2 km/h (1 Bft) 99 %
29.04.2014 07:40 10,6 C 10,6 C 10,6 C 87 % 1011,3 hPa 0,0 l/m 0,0 km/h (0 Bft) W-SW 247 0 min 0,000 mm 42 W/m 8,5 C 10,6 C 3,2 km/h (1 Bft) 100 %
29.04.2014 07:50 10,7 C 10,6 C 10,7 C 87 % 1011,4 hPa 0,0 l/m 1,6 km/h (1 Bft) W-SW 247 0 min 0,000 mm 42 W/m 8,6 C 10,7 C 6,4 km/h (2 Bft) 100 %
29.04.2014 08:00 10,7 C 10,7 C 10,7 C 87 % 1011,5 hPa 0,0 l/m 3,2 km/h (1 Bft) S-SW 202 0 min 0,025 mm 40 W/m 8,6 C 10,7 C 9,7 km/h (2 Bft) 100 %
29.04.2014 08:10 10,7 C 10,7 C 10,7 C 87 % 1011,5 hPa 0,0 l/m 1,6 km/h (1 Bft) SW 225 0 min 0,000 mm 46 W/m 8,6 C 10,7 C 8,0 km/h (2 Bft) 100 %
29.04.2014 08:20 10,7 C 10,7 C 10,7 C 87 % 1011,5 hPa 0,0 l/m 3,6 km/h (1 Bft) W 265 0 min 0,000 mm 35 W/m 8,6 C 10,7 C 11,3 km/h (2 Bft) 97 %
29.04.2014 08:30 10,8 C 10,7 C 10,8 C 87 % 1011,5 hPa 0,0 l/m 3,6 km/h (1 Bft) W 264 0 min 0,000 mm 53 W/m 8,7 C 10,8 C 11,3 km/h (2 Bft) 97 %
29.04.2014 08:40 10,8 C 10,7 C 10,8 C 88 % 1011,4 hPa 0,0 l/m 1,9 km/h (1 Bft) W 261 0 min 0,000 mm 49 W/m 8,9 C 10,8 C 9,7 km/h (2 Bft) 98 %
29.04.2014 08:50 10,8 C 10,8 C 10,8 C 88 % 1011,5 hPa 0,0 l/m 3,8 km/h (1 Bft) W 265 0 min 0,000 mm 62 W/m 8,9 C 10,8 C 16,1 km/h (3 Bft) 97 %
29.04.2014 09:00 10,9 C 10,8 C 10,9 C 87 % 1011,6 hPa 0,0 l/m 0,9 km/h (0 Bft) W-SW 255 0 min 0,026 mm 63 W/m 8,8 C 10,9 C 6,4 km/h (2 Bft) 98 %
29.04.2014 09:10 11,0 C 10,9 C 11,0 C 87 % 1011,7 hPa 0,0 l/m 0,7 km/h (0 Bft) W-SW 252 0 min 0,000 mm 83 W/m 8,9 C 11,0 C 8,0 km/h (2 Bft) 97 %
29.04.2014 09:20 11,1 C 11,0 C 11,1 C 87 % 1011,8 hPa 0,0 l/m 1,6 km/h (1 Bft) W-SW 251 0 min 0,000 mm 74 W/m 9,0 C 11,1 C 8,0 km/h (2 Bft) 97 %
29.04.2014 09:30 11,2 C 11,1 C 11,2 C 87 % 1011,7 hPa 0,0 l/m 0,2 km/h (0 Bft) W-SW 251 0 min 0,000 mm 74 W/m 9,1 C 11,2 C 6,4 km/h (2 Bft) 97 %
29.04.2014 09:40 11,3 C 11,2 C 11,3 C 87 % 1011,9 hPa 0,0 l/m 1,6 km/h (1 Bft) W-SW 251 0 min 0,000 mm 60 W/m 9,2 C 11,3 C 6,4 km/h (2 Bft) 97 %
29.04.2014 09:50 11,3 C 11,3 C 11,3 C 87 % 1011,8 hPa 0,0 l/m 0,5 km/h (0 Bft) W-SW 251 0 min 0,000 mm 69 W/m 9,2 C 11,3 C 4,8 km/h (1 Bft) 97 %
29.04.2014 10:00 11,4 C 11,3 C 11,4 C 87 % 1011,9 hPa 0,0 l/m 2,7 km/h (1 Bft) SW 224 0 min 0,025 mm 88 W/m 9,3 C 11,4 C 9,7 km/h (2 Bft) 97 %
29.04.2014 10:10 11,5 C 11,4 C 11,5 C 87 % 1011,9 hPa 0,0 l/m 0,8 km/h (0 Bft) SW 223 0 min 0,000 mm 70 W/m 9,4 C 11,5 C 6,4 km/h (2 Bft) 98 %
29.04.2014 10:20 11,6 C 11,5 C 11,6 C 87 % 1011,9 hPa 0,0 l/m 3,2 km/h (1 Bft) S-SW 198 0 min 0,000 mm 56 W/m 9,5 C 11,6 C 9,7 km/h (2 Bft) 97 %
29.04.2014 10:30 11,5 C 11,5 C 11,6 C 87 % 1012,0 hPa 0,0 l/m 3,0 km/h (1 Bft) SW 233 0 min 0,000 mm 51 W/m 9,4 C 11,5 C 9,7 km/h (2 Bft) 98 %
29.04.2014 10:40 11,4 C 11,4 C 11,5 C 87 % 1012,1 hPa 0,0 l/m 4,4 km/h (1 Bft) S-SW 213 0 min 0,000 mm 44 W/m 9,3 C 11,4 C 9,7 km/h (2 Bft) 97 %
29.04.2014 10:50 11,4 C 11,4 C 11,4 C 87 % 1012,1 hPa 0,0 l/m 4,2 km/h (1 Bft) SW 223 0 min 0,000 mm 104 W/m 9,3 C 11,4 C 9,7 km/h (2 Bft) 97 %
29.04.2014 11:00 11,4 C 11,4 C 11,4 C 87 % 1012,1 hPa 0,0 l/m 3,3 km/h (1 Bft) SW 222 0 min 0,051 mm 84 W/m 9,3 C 11,4 C 8,0 km/h (2 Bft) 98 %
29.04.2014 11:10 11,5 C 11,4 C 11,5 C 87 % 1012,2 hPa 0,2 l/m 0,5 km/h (0 Bft) SW 215 0 min 0,000 mm 70 W/m 9,4 C 11,5 C 8,0 km/h (2 Bft) 97 %
29.04.2014 11:20 11,5 C 11,4 C 11,5 C 87 % 1012,1 hPa 0,0 l/m 0,1 km/h (0 Bft) SW 220 0 min 0,000 mm 74 W/m 9,4 C 11,5 C 1,6 km/h (1 Bft) 100 %
29.04.2014 11:30 11,6 C 11,5 C 11,6 C 87 % 1012,2 hPa 0,0 l/m 0,0 km/h (0 Bft) SW 220 0 min 0,000 mm 100 W/m 9,5 C 11,6 C 1,6 km/h (1 Bft) 99 %
29.04.2014 11:40 11,6 C 11,6 C 11,6 C 87 % 1012,1 hPa 0,0 l/m 0,1 km/h (0 Bft) SW 221 0 min 0,000 mm 134 W/m 9,5 C 11,6 C 3,2 km/h (1 Bft) 100 %
29.04.2014 11:50 11,7 C 11,6 C 11,7 C 87 % 1012,0 hPa 0,0 l/m 0,0 km/h (0 Bft) SW 221 0 min 0,000 mm 120 W/m 9,6 C 11,7 C 1,6 km/h (1 Bft) 100 %
29.04.2014 12:00 11,9 C 11,7 C 11,9 C 87 % 1012,0 hPa 0,0 l/m 0,2 km/h (0 Bft) SW 221 10 min 0,051 mm 204 W/m 9,8 C 11,9 C 3,2 km/h (1 Bft) 90 %
29.04.2014 12:10 12,2 C 11,9 C 12,2 C 87 % 1012,0 hPa 0,2 l/m 0,5 km/h (0 Bft) SW 221 10 min 0,000 mm 220 W/m 10,1 C 12,2 C 4,8 km/h (1 Bft) 99 %
29.04.2014 12:20 12,4 C 12,2 C 12,4 C 87 % 1011,9 hPa 0,0 l/m 1,0 km/h (0 Bft) W-NW 287 10 min 0,000 mm 172 W/m 10,3 C 12,4 C 6,4 km/h (2 Bft) 100 %
29.04.2014 12:30 12,4 C 12,4 C 12,4 C 87 % 1012,0 hPa 0,0 l/m 0,6 km/h (0 Bft) W-NW 284 10 min 0,000 mm 197 W/m 10,3 C 12,4 C 6,4 km/h (2 Bft) 100 %
29.04.2014 12:40 12,6 C 12,4 C 12,6 C 87 % 1012,0 hPa 0,0 l/m 0,5 km/h (0 Bft) W 263 10 min 0,000 mm 185 W/m 10,5 C 12,6 C 6,4 km/h (2 Bft) 99 %
29.04.2014 12:50 12,7 C 12,6 C 12,8 C 87 % 1011,9 hPa 0,0 l/m 0,4 km/h (0 Bft) W 263 10 min 0,000 mm 227 W/m 10,6 C 12,7 C 4,8 km/h (1 Bft) 100 %
29.04.2014 13:00 12,9 C 12,7 C 12,9 C 87 % 1012,0 hPa 0,0 l/m 0,5 km/h (0 Bft) SW 234 10 min 0,101 mm 279 W/m 10,8 C 12,9 C 6,4 km/h (2 Bft) 100 %
29.04.2014 13:10 13,1 C 12,9 C 13,1 C 87 % 1012,0 hPa 0,0 l/m 0,8 km/h (0 Bft) S-SW 205 10 min 0,000 mm 318 W/m 11,0 C 13,1 C 8,0 km/h (2 Bft) 100 %
29.04.2014 13:20 13,3 C 13,1 C 13,3 C 87 % 1012,0 hPa 0,0 l/m 1,6 km/h (1 Bft) SW 221 10 min 0,000 mm 301 W/m 11,2 C 13,3 C 6,4 km/h (2 Bft) 100 %
29.04.2014 13:30 13,4 C 13,3 C 13,4 C 86 % 1011,9 hPa 0,0 l/m 1,8 km/h (1 Bft) SW 219 10 min 0,000 mm 348 W/m 11,1 C 13,4 C 6,4 km/h (2 Bft) 100 %
29.04.2014 13:40 13,8 C 13,4 C 13,8 C 86 % 1011,9 hPa 0,0 l/m 2,0 km/h (1 Bft) SW 216 10 min 0,000 mm 462 W/m 11,5 C 13,8 C 9,7 km/h (2 Bft) 100 %
29.04.2014 13:50 14,1 C 13,8 C 14,2 C 83 % 1011,9 hPa 0,0 l/m 2,8 km/h (1 Bft) S-SW 208 10 min 0,000 mm 360 W/m 11,3 C 14,1 C 11,3 km/h (2 Bft) 100 %
29.04.2014 14:00 14,4 C 14,1 C 14,4 C 82 % 1011,7 hPa 0,0 l/m 2,1 km/h (1 Bft) S-SW 204 10 min 0,178 mm 506 W/m 11,4 C 14,4 C 8,0 km/h (2 Bft) 100 %
29.04.2014 14:10 14,8 C 14,4 C 14,8 C 83 % 1011,8 hPa 0,0 l/m 4,0 km/h (1 Bft) W 261 10 min 0,000 mm 415 W/m 11,9 C 14,8 C 16,1 km/h (3 Bft) 100 %
29.04.2014 14:20 15,1 C 14,8 C 15,1 C 79 % 1011,5 hPa 0,0 l/m 2,2 km/h (1 Bft) W-SW 241 10 min 0,000 mm 403 W/m 11,5 C 15,1 C 9,7 km/h (2 Bft) 99 %
29.04.2014 14:30 15,6 C 15,1 C 15,6 C 78 % 1011,4 hPa 0,0 l/m 2,8 km/h (1 Bft) W-NW 291 10 min 0,000 mm 341 W/m 11,8 C 15,6 C 11,3 km/h (2 Bft) 100 %
29.04.2014 14:40 15,8 C 15,6 C 15,8 C 77 % 1011,4 hPa 0,0 l/m 3,6 km/h (1 Bft) S-SW 204 10 min 0,000 mm 928 W/m 11,8 C 15,8 C 11,3 km/h (2 Bft) 91 %
29.04.2014 14:50 15,9 C 15,8 C 15,9 C 75 % 1011,3 hPa 0,0 l/m 2,7 km/h (1 Bft) SW 229 10 min 0,000 mm 997 W/m 11,5 C 15,9 C 14,5 km/h (3 Bft) 100 %
29.04.2014 15:00 16,2 C 15,9 C 16,2 C 78 % 1011,2 hPa 0,0 l/m 2,7 km/h (1 Bft) S-SW 210 10 min 0,356 mm 900 W/m 12,4 C 16,2 C 9,7 km/h (2 Bft) 100 %
29.04.2014 15:10 16,4 C 16,2 C 16,5 C 73 % 1011,1 hPa 0,0 l/m 3,3 km/h (1 Bft) W-SW 258 10 min 0,000 mm 272 W/m 11,5 C 16,4 C 11,3 km/h (2 Bft) 100 %
29.04.2014 15:20 16,3 C 16,3 C 16,4 C 75 % 1010,7 hPa 0,0 l/m 0,7 km/h (0 Bft) W-SW 257 10 min 0,000 mm 348 W/m 11,9 C 16,3 C 6,4 km/h (2 Bft) 99 %
29.04.2014 15:30 16,4 C 16,3 C 16,4 C 72 % 1010,6 hPa 0,0 l/m 1,8 km/h (1 Bft) W 273 10 min 0,000 mm 195 W/m 11,3 C 16,4 C 6,4 km/h (2 Bft) 100 %
29.04.2014 15:40 16,4 C 16,4 C 16,4 C 75 % 1010,5 hPa 0,0 l/m 1,2 km/h (1 Bft) NW 321 10 min 0,000 mm 450 W/m 12,0 C 16,4 C 6,4 km/h (2 Bft) 100 %
29.04.2014 15:50 16,7 C 16,4 C 16,7 C 72 % 1010,4 hPa 0,0 l/m 2,1 km/h (1 Bft) NW 310 10 min 0,000 mm 200 W/m 11,6 C 16,7 C 8,0 km/h (2 Bft) 100 %
29.04.2014 16:00 16,9 C 16,7 C 16,9 C 74 % 1010,4 hPa 0,0 l/m 1,0 km/h (0 Bft) NW 309 10 min 0,228 mm 661 W/m 12,2 C 16,9 C 8,0 km/h (2 Bft) 100 %
29.04.2014 16:10 16,9 C 16,8 C 16,9 C 73 % 1010,4 hPa 0,0 l/m 0,1 km/h (0 Bft) NW 312 10 min 0,000 mm 327 W/m 12,0 C 16,9 C 3,2 km/h (1 Bft) 100 %
29.04.2014 16:20 16,8 C 16,8 C 16,9 C 72 % 1010,3 hPa 0,0 l/m 0,4 km/h (0 Bft) W-SW 254 10 min 0,000 mm 742 W/m 11,7 C 16,8 C 4,8 km/h (1 Bft) 100 %
29.04.2014 16:30 17,0 C 16,7 C 17,0 C 71 % 1010,1 hPa 0,0 l/m 1,4 km/h (1 Bft) NW 309 10 min 0,000 mm 663 W/m 11,7 C 17,0 C 6,4 km/h (2 Bft) 100 %
29.04.2014 16:40 17,4 C 17,0 C 17,4 C 68 % 1009,9 hPa 0,0 l/m 2,7 km/h (1 Bft) W-SW 241 10 min 0,000 mm 155 W/m 11,4 C 17,4 C 11,3 km/h (2 Bft) 100 %
29.04.2014 16:50 17,4 C 17,4 C 17,4 C 68 % 1010,0 hPa 0,0 l/m 2,4 km/h (1 Bft) W-SW 248 0 min 0,000 mm 121 W/m 11,4 C 17,4 C 9,7 km/h (2 Bft) 100 %
29.04.2014 17:00 17,2 C 17,2 C 17,4 C 66 % 1010,0 hPa 0,0 l/m 0,8 km/h (0 Bft) W 270 10 min 0,204 mm 167 W/m 10,8 C 17,2 C 6,4 km/h (2 Bft) 100 %
29.04.2014 17:10 16,8 C 16,8 C 17,2 C 70 % 1010,0 hPa 0,0 l/m 2,0 km/h (1 Bft) SW 218 10 min 0,000 mm 174 W/m 11,3 C 16,8 C 8,0 km/h (2 Bft) 100 %
29.04.2014 17:20 16,7 C 16,7 C 16,8 C 71 % 1009,9 hPa 0,0 l/m 1,2 km/h (1 Bft) SW 227 10 min 0,000 mm 197 W/m 11,4 C 16,7 C 6,4 km/h (2 Bft) 100 %
29.04.2014 17:30 16,6 C 16,6 C 16,7 C 68 % 1009,8 hPa 0,0 l/m 1,0 km/h (0 Bft) SW 225 10 min 0,000 mm 172 W/m 10,7 C 16,6 C 6,4 km/h (2 Bft) 100 %
29.04.2014 17:40 16,6 C 16,6 C 16,6 C 68 % 1009,7 hPa 0,0 l/m 0,4 km/h (0 Bft) SW 226 10 min 0,000 mm 190 W/m 10,7 C 16,6 C 4,8 km/h (1 Bft) 100 %
29.04.2014 17:50 16,7 C 16,6 C 16,7 C 69 % 1009,7 hPa 0,0 l/m 0,2 km/h (0 Bft) SW 227 10 min 0,000 mm 179 W/m 11,0 C 16,7 C 4,8 km/h (1 Bft) 100 %
29.04.2014 18:00 16,6 C 16,6 C 16,7 C 70 % 1009,7 hPa 0,0 l/m 0,0 km/h (0 Bft) SW 226 10 min 0,101 mm 165 W/m 11,1 C 16,6 C 1,6 km/h (1 Bft) 100 %
29.04.2014 18:10 16,7 C 16,6 C 16,7 C 71 % 1009,6 hPa 0,0 l/m 0,1 km/h (0 Bft) SW 226 0 min 0,000 mm 130 W/m 11,4 C 16,7 C 4,8 km/h (1 Bft) 100 %
29.04.2014 18:20 16,6 C 16,6 C 16,7 C 71 % 1009,6 hPa 0,0 l/m 0,1 km/h (0 Bft) W 265 0 min 0,000 mm 137 W/m 11,3 C 16,6 C 3,2 km/h (1 Bft) 100 %
29.04.2014 18:30 16,6 C 16,6 C 16,7 C 70 % 1009,5 hPa 0,0 l/m 0,0 km/h (0 Bft) W 265 0 min 0,000 mm 128 W/m 11,1 C 16,6 C 1,6 km/h (1 Bft) 100 %
29.04.2014 18:40 16,4 C 16,4 C 16,6 C 70 % 1009,5 hPa 0,0 l/m 1,1 km/h (1 Bft) SW 232 0 min 0,000 mm 105 W/m 10,9 C 16,4 C 6,4 km/h (2 Bft) 100 %
29.04.2014 18:50 16,2 C 16,2 C 16,4 C 69 % 1009,5 hPa 0,0 l/m 3,6 km/h (1 Bft) W-SW 250 0 min 0,000 mm 74 W/m 10,5 C 16,2 C 14,5 km/h (3 Bft) 100 %
29.04.2014 19:00 16,0 C 16,0 C 16,3 C 70 % 1009,5 hPa 0,0 l/m 1,8 km/h (1 Bft) W-SW 258 0 min 0,076 mm 63 W/m 10,5 C 16,0 C 9,7 km/h (2 Bft) 100 %
29.04.2014 19:10 15,8 C 15,8 C 16,0 C 71 % 1009,4 hPa 0,0 l/m 1,1 km/h (1 Bft) W-SW 258 0 min 0,000 mm 46 W/m 10,6 C 15,8 C 6,4 km/h (2 Bft) 100 %
29.04.2014 19:20 15,5 C 15,5 C 15,8 C 72 % 1009,4 hPa 0,0 l/m 0,6 km/h (0 Bft) W-SW 258 0 min 0,000 mm 37 W/m 10,5 C 15,5 C 4,8 km/h (1 Bft) 100 %
29.04.2014 19:30 15,2 C 15,2 C 15,5 C 74 % 1009,5 hPa 0,0 l/m 0,2 km/h (0 Bft) W-SW 258 0 min 0,000 mm 39 W/m 10,6 C 15,2 C 3,2 km/h (1 Bft) 100 %
29.04.2014 19:40 15,1 C 15,1 C 15,2 C 74 % 1009,5 hPa 0,0 l/m 1,0 km/h (0 Bft) W-SW 252 0 min 0,000 mm 49 W/m 10,5 C 15,1 C 8,0 km/h (2 Bft) 100 %
29.04.2014 19:50 14,8 C 14,8 C 15,1 C 74 % 1009,6 hPa 0,0 l/m 4,3 km/h (1 Bft) W-SW 252 0 min 0,000 mm 37 W/m 10,2 C 14,8 C 11,3 km/h (2 Bft) 100 %
29.04.2014 20:00 14,6 C 14,6 C 14,8 C 75 % 1009,7 hPa 0,0 l/m 3,8 km/h (1 Bft) W-SW 246 0 min 0,026 mm 32 W/m 10,2 C 14,6 C 11,3 km/h (2 Bft) 100 %
29.04.2014 20:10 14,4 C 14,4 C 14,6 C 76 % 1009,8 hPa 0,0 l/m 1,4 km/h (1 Bft) W-NW 282 0 min 0,000 mm 21 W/m 10,2 C 14,4 C 8,0 km/h (2 Bft) 100 %
29.04.2014 20:20 14,2 C 14,2 C 14,4 C 77 % 1009,7 hPa 0,0 l/m 0,6 km/h (0 Bft) W-NW 285 0 min 0,000 mm 11 W/m 10,2 C 14,2 C 4,8 km/h (1 Bft) 100 %
29.04.2014 20:30 14,0 C 14,0 C 14,2 C 77 % 1009,7 hPa 0,0 l/m 1,0 km/h (0 Bft) W-NW 292 0 min 0,000 mm 5 W/m 10,0 C 14,0 C 6,4 km/h (2 Bft) 100 %
29.04.2014 20:40 13,8 C 13,8 C 14,0 C 78 % 1009,8 hPa 0,0 l/m 0,0 km/h (0 Bft) W-NW 292 0 min 0,000 mm 0 W/m 10,0 C 13,8 C 1,6 km/h (1 Bft) 100 %
29.04.2014 20:50 13,5 C 13,5 C 13,8 C 79 % 1009,8 hPa 0,0 l/m 0,0 km/h (0 Bft) W-NW 292 0 min 0,000 mm 0 W/m 9,9 C 13,5 C 1,6 km/h (1 Bft) 100 %
29.04.2014 21:00 13,2 C 13,2 C 13,5 C 80 % 1009,7 hPa 0,0 l/m 0,0 km/h (0 Bft) W-NW 292 0 min 0,000 mm 0 W/m 9,8 C 13,2 C 1,6 km/h (1 Bft) 100 %
29.04.2014 21:10 12,9 C 12,9 C 13,2 C 81 % 1009,7 hPa 0,0 l/m 0,0 km/h (0 Bft) W-NW 292 0 min 0,000 mm 0 W/m 9,7 C 12,9 C 6,4 km/h (2 Bft) 100 %
29.04.2014 21:20 12,6 C 12,6 C 12,9 C 83 % 1009,8 hPa 0,0 l/m 0,0 km/h (0 Bft) W-NW 292 0 min 0,000 mm 0 W/m 9,8 C 12,6 C 1,6 km/h (1 Bft) 100 %
29.04.2014 21:30 12,3 C 12,3 C 12,6 C 83 % 1009,7 hPa 0,0 l/m 0,0 km/h (0 Bft) W-NW 292 0 min 0,000 mm 0 W/m 9,5 C 12,3 C 3,2 km/h (1 Bft) 100 %
29.04.2014 21:40 12,1 C 12,1 C 12,3 C 84 % 1009,8 hPa 0,0 l/m 0,0 km/h (0 Bft) W-NW 292 0 min 0,000 mm 0 W/m 9,5 C 12,1 C 3,2 km/h (1 Bft) 100 %
29.04.2014 21:50 11,8 C 11,8 C 12,1 C 85 % 1010,0 hPa 0,0 l/m 0,0 km/h (0 Bft) N 0 0 min 0,000 mm 0 W/m 9,4 C 11,8 C 0,0 km/h (0 Bft) 100 %
29.04.2014 22:00 11,6 C 11,6 C 11,8 C 85 % 1010,0 hPa 0,0 l/m 0,0 km/h (0 Bft) N 0 0 min 0,000 mm 0 W/m 9,2 C 11,6 C 0,0 km/h (0 Bft) 100 %
29.04.2014 22:10 11,4 C 11,4 C 11,6 C 86 % 1010,1 hPa 0,0 l/m 0,0 km/h (0 Bft) N 0 0 min 0,000 mm 0 W/m 9,1 C 11,4 C 0,0 km/h (0 Bft) 100 %
29.04.2014 22:20 11,3 C 11,3 C 11,4 C 86 % 1010,1 hPa 0,0 l/m 0,0 km/h (0 Bft) N 0 0 min 0,000 mm 0 W/m 9,0 C 11,3 C 0,0 km/h (0 Bft) 100 %
29.04.2014 22:30 11,1 C 11,1 C 11,3 C 86 % 1010,1 hPa 0,0 l/m 0,0 km/h (0 Bft) N 0 0 min 0,000 mm 0 W/m 8,8 C 11,1 C 0,0 km/h (0 Bft) 100 %
29.04.2014 22:40 10,9 C 10,9 C 11,1 C 86 % 1010,1 hPa 0,0 l/m 0,0 km/h (0 Bft) N 0 0 min 0,000 mm 0 W/m 8,7 C 10,9 C 0,0 km/h (0 Bft) 100 %
29.04.2014 22:50 10,6 C 10,6 C 10,9 C 87 % 1010,2 hPa 0,0 l/m 0,0 km/h (0 Bft) W-NW 292 0 min 0,000 mm 0 W/m 8,5 C 10,6 C 4,8 km/h (1 Bft) 100 %
29.04.2014 23:00 10,2 C 10,2 C 10,6 C 87 % 1010,1 hPa 0,0 l/m 0,0 km/h (0 Bft) W-NW 292 0 min 0,000 mm 0 W/m 8,1 C 10,2 C 3,2 km/h (1 Bft) 100 %
29.04.2014 23:10 10,2 C 10,2 C 10,2 C 87 % 1010,2 hPa 0,0 l/m 0,0 km/h (0 Bft) N 0 0 min 0,000 mm 0 W/m 8,1 C 10,2 C 0,0 km/h (0 Bft) 100 %
29.04.2014 23:20 10,2 C 10,2 C 10,2 C 87 % 1010,0 hPa 0,0 l/m 0,0 km/h (0 Bft) N 0 0 min 0,000 mm 0 W/m 8,1 C 10,2 C 0,0 km/h (0 Bft) 100 %
29.04.2014 23:30 10,1 C 10,1 C 10,2 C 87 % 1009,9 hPa 0,0 l/m 0,0 km/h (0 Bft) N 0 0 min 0,000 mm 0 W/m 8,0 C 10,1 C 0,0 km/h (0 Bft) 100 %
29.04.2014 23:40 10,1 C 10,1 C 10,1 C 87 % 1009,9 hPa 0,0 l/m 0,0 km/h (0 Bft) N 0 0 min 0,000 mm 0 W/m 8,0 C 10,1 C 0,0 km/h (0 Bft) 100 %
29.04.2014 23:50 10,1 C 10,1 C 10,1 C 87 % 1009,9 hPa 0,0 l/m 0,0 km/h (0 Bft) N 0 0 min 0,000 mm 0 W/m 8,0 C 10,1 C 0,0 km/h (0 Bft) 100 %
_ Min-Zeit 23:30 23:30 23:40 17:00 19:10 - 00:00 - - - - - 23:30 23:30 02:20 05:20
Minimum _ 10,1 C 10,1 C 10,1 C 66 % 1009,4 hPa - 0,0 km/h (0 Bft) - - - - - 8,0 C 10,1 C 0,0 km/h (0 Bft) 90 %
_ Max-Zeit 16:40 16:50 16:40 08:40 11:10 11:10 10:40 - - 12:00 15:00 14:50 15:00 16:40 08:50 00:20
Maximum _ 17,4 C 17,4 C 17,4 C 88 % 1012,2 hPa 0,2 l/m 4,4 km/h
S-SW (1 Bft)
- - 10 min 0,356 mm 997 W/m 12,4 C 17,4 C 16,1 km/h
SW (3 Bft)
100 %
Durchschnitt _ 12,6 C 12,5 C 12,6 C 83 % 1010,8 hPa #0,4 l/m 0,9 km/h (0 Bft) SW - #6:00 h #1,448 mm 190 W/m 9,7 C 12,6 C 5,3 km/h (1 Bft) 99 %
PRIVATE WETTERSTATION BILLIGHEIM-ALLFELD - www.neckar-odenwald-wetter.de - Holger Sonntag